Location: Waco, TX
(31.5480°N, 97.1670°W)
Time: 02:43:18
(UTC-06:00)

ISS - Pass Details

Date: 05 January 2018
Orbit: 401 x 406 km, 51.6° (Epoch: 17 January)

Event Time Altitude Azimuth Distance (km) Brightness Sun altitude
Rises 03:29:39 0° 250° (WSW) 2,303 - -50.2°
Reaches altitude 10° 03:31:58 10° 264° (W) 1,449 - -49.7°
Maximum altitude 03:34:41 24° 322° (NW) 872 - -49.1°
Drops below altitude 10° 03:37:26 10° 19° (NNE) 1,457 - -48.5°
Sets 03:39:46 0° 34° (NNE) 2,320 - -48.0°
